[[{"header":{"parameterUnit":"m.s-1","parameterCategory":1,"la1":30.2991,"la2":30.254,"lo1":-89.0895,"lo2":-89.0444,"dy":0.0017,"dx":0.0017,"nx":28,"ny":28,"refTime":"2023-09-30T21:00:00:Z","depth":0,"parameterNumber":2,"parameterNumberName":"U-component_of_WINDS"},"data":[0,0,0,0,0,0,0,0,0,0,0,0,0,0,0,0,0,0,0,0,0,0,0,0,0,0,0,0,0,0,0,0,0,0,0,0,0,0,0,0,0,0,0,0,0,0,0,0,0,0,0,0,0,0,0,0,0,0,-5.742,-5.742,0,-5.7414,-5.7414,-5.7414,-5.7279,-5.7276,-5.7272,-5.7269,-5.7265,-5.7268,-5.7271,0,0,0,0,0,0,0,0,0,0,0,0,0,-5.732,-5.7322,-5.742,-5.742,-5.742,-5.7414,-5.7414,-5.7414,-5.728,-5.7275,-5.7271,-5.7267,-5.7264,-5.7267,-5.7271,0,0,0,0,0,0,0,0,0,0,0,0,0,-5.7344,-5.7323,-5.742,-5.7353,-5.7346,-5.7414,-5.7414,-5.7414,-5.7281,-5.7275,-5.727,-5.7265,-5.7262,-5.7267,-5.7272,-5.7404,0,0,-5.7286,-5.7288,0,0,0,0,0,0,0,0,-5.7342,-5.7347,-5.7363,-5.7357,-5.7351,-5.7342,-5.7377,-5.7411,-5.7282,-5.7306,-5.7269,-5.7263,-5.7295,-5.7296,-5.7307,-5.7404,-5.7404,-5.7286,-5.7289,-5.7291,-5.7292,0,0,0,0,0,0,0,-5.7341,-5.7347,-5.7418,-5.7363,-5.7356,-5.7323,-5.7321,-5.7383,-5.733,-5.7303,-5.7293,-5.7294,-5.729,-5.7303,-5.7306,-5.7404,-5.7286,-5.729,-5.7293,-5.7295,-5.7613,-5.7618,0,0,0,0,0,0,-5.7348,-5.7347,-5.7418,-5.7418,-5.7334,-5.733,-5.7327,-5.735,-5.7328,-5.732,-5.7299,-5.7288,-5.7297,-5.73,-5.7305,-5.7461,-5.7291,-5.7295,-5.7298,-5.7607,-5.7614,-5.762,0,0,0,0,0,0,-5.7347,-5.7356,-5.7418,-5.7379,-5.7385,-5.7337,-5.7364,-5.7353,-5.7364,-5.7325,-5.7315,-5.7321,-5.7293,-5.7298,-5.7381,-5.7459,-5.7298,-5.7302,-5.7601,-5.7609,-5.7617,-5.7773,0,0,0,0,0,0,-5.7344,-5.7356,-5.7405,-5.7382,-5.7388,-5.7494,-5.7369,-5.7356,-5.7373,-5.7359,-5.7343,-5.7335,-5.7289,-5.7375,-5.7386,-5.7462,-5.7305,-5.7594,-5.7605,-5.7615,-5.7761,-5.7786,-5.7807,0,0,0,0,0,-5.7341,-5.7449,-5.7408,-5.7418,-5.7448,-5.7499,-5.7502,-5.7446,-5.7379,-5.7429,-5.7404,-5.7336,-5.7448,-5.7384,-5.7396,-5.7475,-5.7588,-5.7601,-5.7614,-5.775,-5.7781,-5.7807,0,0,0,0,0,0,-5.7483,-5.7445,-5.7399,-5.7502,-5.7505,-5.7476,-5.7536,-5.748,-5.7502,-5.7488,-5.7419,-5.7416,-5.7511,-5.75,-5.743,-5.7603,-5.7507,-5.7522,-5.7607,-5.7635,-5.7658,-5.7659,-5.7309,0,0,0,0,0,-5.7527,-5.7571,-5.7535,-5.7629,-5.7633,-5.7585,-5.7605,-5.7562,-5.7562,-5.7563,-5.7543,-5.7547,-5.7583,-5.7608,-5.7639,-5.7758,-5.7754,-5.7819,-5.7842,-5.7861,-5.7876,-5.794,-5.7969,-5.7662,-5.7662,-5.7662,0,0,-5.7617,-5.7601,-5.7633,-5.7658,-5.7654,-5.7703,-5.7587,-5.7642,-5.7678,-5.7571,-5.7648,-5.7635,-5.7634,-5.7737,-5.7781,-5.7731,-5.796,-5.7877,-5.7893,-5.7897,-5.7956,-5.7986,-5.8012,-5.7671,-5.7669,-5.7668,0,0,-5.7806,-5.7798,-5.7877,-5.7876,-5.7873,-5.7841,-5.786,-5.784,-5.7827,-5.7903,-5.7825,-5.7867,-5.793,-5.7934,-5.7944,-5.8137,-5.8076,-5.8149,-5.8271,-5.8335,-5.8359,-5.838,-5.8451,-5.8477,-5.8164,-5.8164,-5.8164,0,-5.7918,-5.7987,-5.7925,-5.7986,-5.8,-5.7906,-5.7986,-5.7989,-5.7997,-5.8009,-5.7954,-5.8033,-5.8025,-5.8128,-5.8176,-5.8186,-5.8208,-5.8151,-5.836,-5.8381,-5.84,-5.8467,-5.8493,-5.8173,-5.8172,-5.8171,-5.817,0,-5.8126,-5.8176,-5.824,-5.825,-5.8271,-5.8342,-5.8292,-5.8321,-5.8277,-5.8252,-5.8332,-5.832,-5.8348,-5.8369,-5.8326,-5.8467,-5.8437,-5.8372,-5.8274,-5.8439,-5.8501,-5.8526,-5.8186,-5.8183,-5.818,-5.8178,0,0,-5.8404,-5.838,-5.8405,-5.8409,-5.84,-5.8437,-5.8505,-5.8532,-5.8559,-5.8568,-5.8624,-5.8681,-5.8622,-5.8633,-5.859,-5.8646,-5.8803,-5.8574,-5.8573,-5.8619,-5.896,-5.901,-5.9041,-5.8762,-5.8767,-5.8771,-5.8961,0,-5.8588,-5.8701,-5.8648,-5.8768,-5.8814,-5.8726,-5.8785,-5.8787,-5.8765,-5.8802,-5.8778,-5.882,-5.8737,-5.8744,-5.8796,-5.8773,-5.8871,-5.8758,-5.8816,-5.8819,-5.882,-5.9073,-5.9125,-5.9305,-5.8985,-5.8989,-5.8991,0,-5.8817,-5.8836,-5.8961,-5.8945,-5.8962,-5.9017,-5.9038,-5.9074,-5.9075,-5.9056,-5.907,-5.9015,-5.9082,-5.8984,-5.9077,-5.9001,-5.9022,-5.9015,-5.902,-5.9024,-5.8916,-5.9085,-5.9361,-5.9389,-5.9029,-5.9026,-5.9023,0,-5.9009,-5.9066,-5.9148,-5.9155,-5.9138,-5.9179,-5.9174,-5.9169,-5.919,-5.921,-5.9223,-5.925,-5.9266,-5.9289,-5.9244,-5.9176,-5.9344,-5.9241,-5.9331,-5.9333,-5.9371,-5.9369,-5.9656,-5.9382,-5.9382,-5.9381,-5.9381,0,-5.9221,-5.9301,-5.9235,-5.9286,-5.9374,-5.9313,-5.9402,-5.9388,-5.9385,-5.9433,-5.9359,-5.9406,-5.9342,-5.9383,-5.9348,-5.9432,-5.9439,-5.9426,-5.9417,-5.9434,-5.9436,-5.9447,-5.9434,-5.9389,-5.9387,-5.9386,-5.9384,0,-5.945,-5.9409,-5.9494,-5.9471,-5.9468,-5.9534,-5.9516,-5.9563,-5.9536,-5.9598,-5.9609,-5.9569,-5.9614,-5.9571,-5.9613,-5.9589,-5.9702,-5.9673,-5.9702,-5.9694,-5.9787,-5.978,-6.0092,-6.013,-5.9831,-5.9834,-5.9837,0,-5.9589,-5.9648,-5.9633,-5.966,-5.966,-5.9703,-5.9724,-5.9667,-5.9692,-5.97,-5.9747,-5.9785,-5.9813,-5.9889,-5.9864,-5.9897,-5.9869,-5.9977,-5.9874,-5.989,-5.9873,-5.9871,-5.9878,-5.9998,-6.0001,-6.0004,-6.0007,0,-5.9839,-5.9816,-5.9849,-5.9876,-5.9903,-5.9921,-5.9933,-5.996,-5.9901,-5.9934,-5.9979,-6.0001,-6.0044,-6.0085,-6.011,-6.0106,-6.0049,-6.0039,-6.0062,-6.0081,-6.0096,-6.0091,-5.976,-6.0032,-6.003,-6.0028,-6.0027,-6.0025,-6.0028,-6.0078,-6.0076,-6.0115,-6.0119,-6.0133,-6.0177,-6.0157,-6.0193,-6.0224,-6.0189,-6.0245,-6.0246,-6.0274,-6.0278,-6.0322,-6.0277,-6.031,-6.0318,-6.0328,-6.0342,-6.0088,-6.0326,-6.0326,-6.0325,-6.0324,-6.0324,0,-6.0276,-6.0271,-6.0308,-6.0328,-6.036,-6.0302,-6.0313,-6.0344,-6.0394,-6.0401,-6.043,-6.0483,-6.0522,-6.0502,-6.0536,-6.0575,-6.055,-6.0586,-6.0583,-6.0584,-6.0379,-6.0357,-6.0607,-6.0607,-6.0607,-6.0607,-6.0606,-6.0606,-6.0409,-6.0491,-6.0469,-6.0553,-6.0547,-6.0601,-6.0613,-6.0626,-6.0631,-6.0694,-6.0726,-6.0712,-6.0708,-6.0742,-6.0776,-6.0769,-6.0786,-6.0833,-6.0817,-6.0626,-6.0598,-6.0572,-6.055,-6.0837,-6.0837,-6.1018,-6.1019,-6.1021]},{"header":{"parameterUnit":"m.s-1","parameterCategory":1,"la1":30.2991,"la2":30.254,"lo1":-89.0895,"lo2":-89.0444,"dy":0.0017,"dx":0.0017,"nx":28,"ny":28,"refTime":"2023-09-30T21:00:00:Z","depth":0,"parameterNumber":3,"parameterNumberName":"V-component_of_WINDS"},"data":[0,0,0,0,0,0,0,0,0,0,0,0,0,0,0,0,0,0,0,0,0,0,0,0,0,0,0,0,0,0,0,0,0,0,0,0,0,0,0,0,0,0,0,0,0,0,0,0,0,0,0,0,0,0,0,0,0,0,-0.6546,-0.6547,0,-0.6583,-0.6583,-0.6584,-0.656,-0.6559,-0.6558,-0.6557,-0.6598,-0.66,-0.6602,0,0,0,0,0,0,0,0,0,0,0,0,0,-0.6459,-0.6461,-0.6546,-0.6547,-0.6547,-0.6583,-0.6583,-0.6584,-0.656,-0.6559,-0.6558,-0.6557,-0.6597,-0.66,-0.6603,0,0,0,0,0,0,0,0,0,0,0,0,0,-0.6497,-0.6462,-0.6546,-0.654,-0.654,-0.6583,-0.6583,-0.6584,-0.6561,-0.6559,-0.6557,-0.6556,-0.6597,-0.66,-0.6603,-0.6655,0,0,-0.6613,-0.6614,0,0,0,0,0,0,0,0,-0.6495,-0.65,-0.654,-0.654,-0.654,-0.6565,-0.6568,-0.6608,-0.6561,-0.6553,-0.6557,-0.6555,-0.6589,-0.6592,-0.6603,-0.6657,-0.6659,-0.6613,-0.6615,-0.6616,-0.6617,0,0,0,0,0,0,0,-0.6492,-0.6498,-0.6561,-0.6541,-0.6541,-0.6536,-0.6539,-0.6575,-0.658,-0.6553,-0.6552,-0.6556,-0.6588,-0.66,-0.6604,-0.666,-0.6613,-0.6616,-0.6618,-0.6619,-0.676,-0.6761,0,0,0,0,0,0,-0.649,-0.6496,-0.656,-0.6562,-0.6513,-0.6539,-0.6543,-0.6559,-0.6579,-0.6581,-0.6558,-0.6555,-0.6595,-0.66,-0.6605,-0.6669,-0.6616,-0.6619,-0.6621,-0.6758,-0.676,-0.6762,0,0,0,0,0,0,-0.6488,-0.6495,-0.6558,-0.6529,-0.6536,-0.6542,-0.656,-0.656,-0.6572,-0.6582,-0.6583,-0.6569,-0.6594,-0.6601,-0.6643,-0.667,-0.6621,-0.6623,-0.6756,-0.6758,-0.6761,-0.6797,0,0,0,0,0,0,-0.6485,-0.6495,-0.6514,-0.6529,-0.6538,-0.6595,-0.6562,-0.6562,-0.6577,-0.6574,-0.6593,-0.6594,-0.6594,-0.6638,-0.6646,-0.6674,-0.6626,-0.6753,-0.6757,-0.676,-0.6794,-0.6801,-0.6807,0,0,0,0,0,-0.6482,-0.6524,-0.6516,-0.6523,-0.6562,-0.6596,-0.6601,-0.6599,-0.6579,-0.66,-0.6606,-0.6594,-0.6665,-0.6643,-0.6651,-0.6681,-0.6752,-0.6756,-0.676,-0.6791,-0.68,-0.6807,0,0,0,0,0,0,-0.6514,-0.6526,-0.6517,-0.6564,-0.6579,-0.6592,-0.6618,-0.6608,-0.663,-0.6626,-0.6622,-0.6627,-0.6671,-0.668,-0.6654,-0.6733,-0.6706,-0.6712,-0.6726,-0.6735,-0.6741,-0.674,-0.6629,0,0,0,0,0,-0.6526,-0.6552,-0.6561,-0.6602,-0.661,-0.6612,-0.6627,-0.6623,-0.6639,-0.6646,-0.6656,-0.6673,-0.6699,-0.6717,-0.6741,-0.6794,-0.6798,-0.6818,-0.6824,-0.683,-0.6836,-0.6866,-0.6875,-0.6776,-0.6775,-0.6775,0,0,-0.6552,-0.6562,-0.6579,-0.6608,-0.662,-0.6648,-0.6618,-0.6649,-0.667,-0.6651,-0.6692,-0.6699,-0.6718,-0.6766,-0.6787,-0.6774,-0.6864,-0.6835,-0.6839,-0.6843,-0.6871,-0.688,-0.6889,-0.6778,-0.6778,-0.6777,0,0,-0.6615,-0.6623,-0.6659,-0.667,-0.6687,-0.6689,-0.6697,-0.6711,-0.6715,-0.6755,-0.6742,-0.6767,-0.6812,-0.6826,-0.684,-0.6905,-0.6896,-0.6913,-0.695,-0.6978,-0.6986,-0.6993,-0.7019,-0.7028,-0.6919,-0.6919,-0.6919,0,-0.6646,-0.6686,-0.6679,-0.6711,-0.6725,-0.6707,-0.6744,-0.6755,-0.678,-0.6791,-0.6775,-0.6831,-0.6842,-0.6894,-0.6909,-0.692,-0.6931,-0.6913,-0.6985,-0.6992,-0.6999,-0.7023,-0.7033,-0.6921,-0.6921,-0.6921,-0.692,0,-0.6724,-0.6752,-0.6779,-0.6802,-0.6819,-0.6853,-0.6852,-0.687,-0.6864,-0.6867,-0.6908,-0.6921,-0.6948,-0.6959,-0.6954,-0.701,-0.7001,-0.6985,-0.6959,-0.7011,-0.7034,-0.7043,-0.6924,-0.6924,-0.6923,-0.6922,0,0,-0.6811,-0.6828,-0.6838,-0.6848,-0.6865,-0.6887,-0.692,-0.6945,-0.6962,-0.6978,-0.7007,-0.7045,-0.703,-0.7045,-0.7041,-0.7066,-0.7119,-0.7047,-0.7047,-0.7062,-0.7184,-0.7198,-0.7209,-0.7111,-0.7113,-0.7114,-0.7183,0,-0.6876,-0.6933,-0.6927,-0.6982,-0.7009,-0.6991,-0.702,-0.7034,-0.7037,-0.7061,-0.7064,-0.7092,-0.7069,-0.7078,-0.7101,-0.7108,-0.7144,-0.7102,-0.7141,-0.7142,-0.7139,-0.722,-0.7235,-0.73,-0.7192,-0.7193,-0.7194,0,-0.6961,-0.6979,-0.7037,-0.7049,-0.706,-0.7086,-0.7109,-0.7131,-0.7146,-0.7147,-0.7162,-0.7154,-0.7188,-0.7158,-0.7206,-0.7178,-0.7193,-0.7198,-0.72,-0.7207,-0.7174,-0.7231,-0.732,-0.7331,-0.7208,-0.7207,-0.7206,0,-0.7021,-0.706,-0.71,-0.7109,-0.7123,-0.7142,-0.715,-0.7163,-0.7178,-0.7198,-0.7208,-0.7232,-0.7246,-0.7265,-0.7263,-0.7241,-0.7313,-0.7282,-0.7317,-0.7317,-0.7335,-0.7335,-0.7431,-0.734,-0.734,-0.7339,-0.7339,0,-0.7096,-0.7133,-0.7127,-0.7152,-0.7193,-0.7185,-0.7225,-0.723,-0.7242,-0.7268,-0.7253,-0.7278,-0.7273,-0.7299,-0.7297,-0.7338,-0.7344,-0.7347,-0.7347,-0.735,-0.735,-0.7362,-0.7359,-0.7342,-0.7341,-0.7341,-0.734,0,-0.7172,-0.7169,-0.7212,-0.7221,-0.7224,-0.7254,-0.7263,-0.7287,-0.7287,-0.7321,-0.7328,-0.733,-0.7359,-0.7358,-0.7391,-0.7391,-0.7442,-0.7435,-0.7437,-0.7437,-0.7472,-0.747,-0.7582,-0.7597,-0.7493,-0.7494,-0.7495,0,-0.7222,-0.725,-0.7261,-0.7277,-0.7285,-0.7311,-0.7326,-0.7319,-0.7336,-0.7354,-0.7377,-0.7403,-0.7425,-0.7472,-0.7478,-0.7503,-0.7499,-0.7536,-0.7503,-0.7505,-0.7502,-0.7502,-0.7506,-0.7544,-0.7545,-0.7546,-0.7546,0,-0.7312,-0.7309,-0.7331,-0.7352,-0.7371,-0.7388,-0.7403,-0.7417,-0.7412,-0.7431,-0.746,-0.7476,-0.7509,-0.7537,-0.7561,-0.757,-0.7558,-0.7556,-0.7566,-0.7571,-0.7572,-0.7575,-0.7458,-0.7555,-0.7554,-0.7553,-0.7553,-0.7553,-0.7378,-0.7402,-0.7414,-0.7439,-0.7449,-0.7464,-0.7487,-0.749,-0.7513,-0.7539,-0.7533,-0.7566,-0.758,-0.761,-0.7621,-0.7647,-0.7634,-0.7648,-0.7652,-0.7656,-0.7661,-0.7565,-0.7651,-0.7651,-0.7651,-0.765,-0.765,0,-0.7469,-0.7475,-0.7498,-0.752,-0.754,-0.7524,-0.754,-0.7559,-0.7587,-0.76,-0.7621,-0.7655,-0.7681,-0.7687,-0.7713,-0.7733,-0.7729,-0.774,-0.7741,-0.7743,-0.767,-0.766,-0.7744,-0.7744,-0.7744,-0.7744,-0.7744,-0.7744,-0.7519,-0.7559,-0.7558,-0.7603,-0.7609,-0.764,-0.7651,-0.7664,-0.7675,-0.7712,-0.7734,-0.7737,-0.7748,-0.7774,-0.7798,-0.7799,-0.7811,-0.7825,-0.7825,-0.7757,-0.7748,-0.7739,-0.773,-0.7827,-0.7827,-0.7896,-0.7897,-0.7897]}]]